GW0207 Weather Reports


Display with metric or nautical units.
time (UTC)temp
F
wind
direction
speed
MPH
gust
MPH
rain 1hr
in
rain 24hr
in
rain mn
in
humidity
%
barometer
mb
20260507001235 69 0 0.0 0.0 0.00 0.00 0.00 88 1010.6
20260507000733 69 0 0.0 0.0 0.00 0.00 0.00 88 1010.6
20260507000229 70 0 0.0 0.0 0.00 0.00 0.00 87 1010.7
20260506235729 70 0 0.0 0.0 0.00 0.00 0.00 87 1010.6
20260506235229 70 1 0.0 0.0 0.00 0.00 0.00 87 1010.7
20260506234729 70 1 0.0 0.0 0.00 0.00 0.00 86 1010.6
20260506234228 71 2 0.0 0.0 0.00 0.00 0.00 86 1010.6
20260506233729 71 2 0.0 0.0 0.00 0.00 0.00 85 1010.6
20260506233229 72 3 0.0 0.0 0.00 0.00 0.00 84 1010.7
20260506232729 72 1 0.0 0.0 0.00 0.00 0.00 83 1010.9
20260506232228 72 1 0.0 0.0 0.00 0.00 0.00 83 1011.0
20260506231729 72 0 0.0 0.0 0.00 0.00 0.00 82 1010.8
20260506231229 73 32 0.0 0.0 0.00 0.00 0.00 82 1010.8
20260506230728 73 30 0.0 0.0 0.00 0.00 0.00 82 1010.7
20260506230229 73 26 0.0 0.0 0.00 0.00 0.00 82 1010.6
20260506225947 73 27 0.0 0.0 0.00 0.00 0.00 81 1010.5
20260506225229 73 359 0.0 0.0 0.00 0.00 0.00 82 1010.6
20260506224729 74 359 0.0 0.0 0.00 0.00 0.00 81 1010.6
20260506224229 74 26 0.0 0.0 0.00 0.00 0.00 79 1010.6
20260506223729 74 44 0.0 1.0 0.00 0.00 0.00 78 1010.5
20260506223229 74 45 0.0 1.0 0.00 0.00 0.00 78 1010.4
20260506222730 74 41 0.0 3.0 0.00 0.00 0.00 79 1010.5
20260506222230 74 57 0.0 3.0 0.00 0.00 0.00 79 1010.5
20260506221729 74 216 0.0 2.0 0.00 0.00 0.00 79 1010.4
20260506221229 74 52 0.0 2.0 0.00 0.00 0.00 80 1010.4
20260506220950 74 48 0.0 2.0 0.00 0.00 0.00 81 1010.4
20260506220231 73 12 0.0 1.0 0.00 0.00 0.00 82 1010.4
20260506215728 73 57 0.0 4.0 0.00 0.00 0.00 83 1010.4
20260506215453 73 61 0.0 4.0 0.00 0.00 0.00 83 1010.4
20260506214731 73 48 0.0 1.0 0.00 0.00 0.00 84 1010.6
20260506214231 73 41 0.0 1.0 0.00 0.00 0.00 85 1010.6
20260506213732 73 141 0.0 2.0 0.00 0.00 0.00 85 1010.6
20260506213231 72 306 0.0 2.0 0.00 0.00 0.00 84 1010.6
20260506212729 72 36 0.0 2.0 0.00 0.00 0.00 85 1010.6
20260506212450 72 46 0.0 2.0 0.00 0.00 0.00 86 1010.6
20260506211729 72 51 0.0 1.0 0.00 0.00 0.00 88 1010.7
20260506211452 72 31 0.0 1.0 0.00 0.00 0.00 87 1010.9
20260506210724 72 49 0.0 1.0 0.00 0.00 0.00 88 1010.6
20260506210438 71 45 0.0 1.0 0.00 0.00 0.00 89 1010.6
20260506205710 71 31 0.0 1.0 0.00 0.00 0.00 91 1010.5
20260506205207 71 344 0.0 0.0 0.00 0.00 0.00 92 1010.4
20260506204709 70 43 0.0 1.0 0.00 0.00 0.00 92 1010.5
20260506204207 70 162 0.0 2.0 0.00 0.00 0.00 92 1010.3
20260506203705 70 81 0.0 2.0 0.00 0.00 0.00 92 1010.3
20260506203204 70 48 0.0 1.0 0.00 0.00 0.00 92 1010.3
20260506202703 70 299 0.0 1.0 0.00 0.00 0.00 93 1010.4
20260506202201 69 77 0.0 1.0 0.00 0.00 0.00 92 1010.7
20260506201701 69 137 0.0 1.0 0.00 0.00 0.00 93 1010.7
20260506201203 69 54 0.0 1.0 0.00 0.00 0.00 94 1010.8
20260506200700 69 42 0.0 1.0 0.00 0.00 0.00 94 1011.0
20260506200421 69 46 0.0 1.0 0.00 0.00 0.00 94 1010.7
20260506195701 68 46 0.0 1.0 0.00 0.00 0.00 94 1010.7
20260506195203 68 79 0.0 0.0 0.00 0.00 0.00 94 1010.7
20260506194703 68 232 0.0 1.0 0.00 0.00 0.00 93 1010.8
20260506194200 67 288 0.0 1.0 0.00 0.00 0.00 93 1010.8
20260506193701 67 160 0.0 1.0 0.00 0.00 0.00 92 1011.0
20260506193201 67 105 0.0 1.0 0.00 0.00 0.00 91 1011.4
20260506192701 68 132 0.0 2.0 0.00 0.00 0.00 91 1011.8
20260506192200 68 257 0.0 2.0 0.00 0.00 0.00 90 1012.0
20260506191703 69 336 0.0 1.0 0.00 0.00 0.00 90 1012.4
20260506191425 69 46 0.0 1.0 0.00 0.00 0.00 89 1012.8
20260506190701 69 351 0.0 1.0 0.00 0.00 0.00 87 1012.9
20260506190201 70 50 0.0 2.0 0.00 0.00 0.00 85 1013.0
20260506185700 72 33 0.0 6.0 0.00 0.00 0.00 81 1013.1
20260506185203 74 80 0.0 6.0 0.00 0.00 0.00 75 1013.1
20260506184704 75 41 0.0 3.0 0.00 0.00 0.00 69 1012.8
20260506184203 75 56 0.0 3.0 0.00 0.00 0.00 69 1012.5
20260506183703 76 12 1.0 4.0 0.00 0.00 0.00 69 1012.6
20260506183203 76 55 0.0 4.0 0.00 0.00 0.00 68 1012.5
20260506182704 76 46 1.0 5.0 0.00 0.00 0.00 69 1012.5
20260506182425 76 30 1.0 5.0 0.00 0.00 0.00 68 1012.5
20260506181703 76 48 0.0 8.0 0.00 0.00 0.00 68 1012.5
20260506181203 76 160 1.0 8.0 0.00 0.00 0.00 69 1012.6
20260506180703 76 62 0.0 4.0 0.00 0.00 0.00 69 1012.6
20260506180424 75 44 0.0 4.0 0.00 0.00 0.00 70 1012.6
20260506175933 75 57 0.0 3.0 0.00 0.00 0.00 70 1012.7
20260506175205 75 104 0.0 4.0 0.00 0.00 0.00 71 1012.8
20260506174703 74 98 0.0 4.0 0.00 0.00 0.00 71 1012.8
20260506174204 74 92 0.0 4.0 0.00 0.00 0.00 72 1013.0
20260506173702 74 28 0.0 5.0 0.00 0.00 0.00 73 1012.9
20260506173204 73 96 0.0 5.0 0.00 0.00 0.00 73 1013.0
20260506172703 73 53 0.0 5.0 0.00 0.00 0.00 73 1013.2
20260506172204 73 87 0.0 2.0 0.00 0.00 0.00 73 1013.3
20260506171703 73 318 0.0 4.0 0.00 0.00 0.00 74 1013.4
20260506171201 72 101 0.0 4.0 0.00 0.00 0.00 75 1013.5
20260506170702 72 39 0.0 3.0 0.00 0.00 0.00 76 1013.4
20260506170201 72 69 0.0 3.0 0.00 0.00 0.00 75 1013.4
20260506165701 72 70 0.0 1.0 0.00 0.00 0.00 75 1013.4
20260506165201 72 139 0.0 1.0 0.00 0.00 0.00 73 1013.5
20260506164924 73 52 0.0 2.0 0.00 0.00 0.00 72 1013.5
20260506164201 73 45 0.0 2.0 0.00 0.00 0.00 70 1013.5
20260506163701 73 54 0.0 5.0 0.00 0.00 0.00 69 1013.6
20260506163201 73 112 0.0 5.0 0.00 0.00 0.00 69 1013.7
20260506162700 73 159 0.0 1.0 0.00 0.00 0.00 69 1013.6
20260506162202 73 126 0.0 1.0 0.00 0.00 0.00 69 1013.4
20260506161701 73 106 0.0 3.0 0.00 0.00 0.00 70 1013.5
20260506161419 72 65 0.0 5.0 0.00 0.00 0.00 70 1013.5
20260506160702 72 230 0.0 5.0 0.00 0.00 0.00 70 1013.5
20260506160200 72 49 0.0 3.0 0.00 0.00 0.00 70 1013.6
20260506155705 72 113 0.0 2.0 0.00 0.00 0.00 70 1013.5
20260506155203 71 43 0.0 1.0 0.00 0.00 0.00 72 1013.4
20260506154703 71 75 0.0 1.0 0.00 0.00 0.00 72 1013.5
20260506154203 71 29 0.0 1.0 0.00 0.00 0.00 72 1013.5
20260506153704 70 295 0.0 1.0 0.00 0.00 0.00 72 1013.5
20260506153204 70 135 0.0 3.0 0.00 0.00 0.00 72 1013.5
20260506152704 70 24 0.0 3.0 0.00 0.00 0.00 72 1013.4
20260506152203 70 47 0.0 2.0 0.00 0.00 0.00 73 1013.3
20260506151703 70 76 0.0 2.0 0.00 0.00 0.00 73 1013.3
20260506151204 70 47 0.0 1.0 0.00 0.00 0.00 73 1013.3
20260506150703 70 117 0.0 5.0 0.00 0.00 0.00 73 1013.3
20260506150203 70 195 0.0 5.0 0.00 0.00 0.00 72 1013.2
20260506145704 70 34 0.0 9.0 0.00 0.00 0.00 73 1013.2
20260506145203 70 113 0.0 9.0 0.00 0.00 0.00 73 1013.4
20260506144703 69 46 0.0 5.0 0.00 0.00 0.00 74 1013.4
20260506144203 69 334 0.0 2.0 0.00 0.00 0.00 74 1013.4
20260506143928 68 317 0.0 5.0 0.00 0.00 0.00 75 1013.4
20260506143203 68 131 0.0 5.0 0.00 0.00 0.00 75 1013.4
20260506142704 68 62 0.0 1.0 0.00 0.00 0.00 76 1013.7
20260506142203 68 90 0.0 1.0 0.00 0.00 0.00 76 1013.7
20260506141704 67 43 0.0 3.0 0.00 0.00 0.00 76 1013.7
20260506141203 67 243 0.0 3.0 0.00 0.00 0.00 76 1013.6
20260506140703 67 104 0.0 5.0 0.00 0.00 0.00 77 1013.6
20260506140203 67 62 0.0 5.0 0.00 0.00 0.00 77 1013.7
20260506135703 67 145 0.0 1.0 0.00 0.00 0.00 77 1013.6
20260506135202 66 60 0.0 2.0 0.00 0.00 0.00 78 1013.8
20260506134703 66 80 0.0 4.0 0.00 0.00 0.00 78 1013.8
20260506134201 65 139 0.0 4.0 0.00 0.00 0.00 79 1013.8
20260506133701 65 48 0.0 1.0 0.00 0.00 0.00 79 1014.0
20260506133202 65 53 0.0 1.0 0.00 0.00 0.00 80 1014.0
20260506132702 65 23 0.0 1.0 0.00 0.00 0.00 80 1014.1
20260506132201 65 213 0.0 1.0 0.00 0.00 0.00 79 1014.3
20260506131701 65 32 0.0 3.0 0.00 0.00 0.00 80 1014.1
20260506131425 65 50 0.0 3.0 0.00 0.00 0.00 80 1013.8
20260506130701 65 44 0.0 2.0 0.00 0.00 0.00 80 1013.8
20260506130201 65 26 0.0 3.0 0.00 0.00 0.00 80 1013.9
20260506125701 64 43 0.0 3.0 0.00 0.00 0.00 81 1013.7
20260506125203 64 29 0.0 1.0 0.00 0.00 0.00 82 1013.6
20260506124700 64 175 0.0 5.0 0.00 0.00 0.00 83 1013.5
20260506124201 64 170 0.0 5.0 0.00 0.00 0.00 84 1013.5
20260506123701 63 47 0.0 1.0 0.00 0.00 0.00 84 1013.5
20260506123201 63 57 0.0 1.0 0.00 0.00 0.00 85 1013.5
20260506122700 63 110 0.0 1.0 0.00 0.00 0.00 85 1013.4
20260506122201 63 76 0.0 1.0 0.00 0.00 0.00 85 1013.2
20260506121701 63 83 0.0 0.0 0.00 0.00 0.00 85 1013.1
20260506121201 63 106 0.0 1.0 0.00 0.00 0.00 86 1013.1
20260506120927 62 23 0.0 1.0 0.00 0.00 0.00 86 1013.1
20260506120200 62 234 0.0 1.0 0.00 0.00 0.00 86 1013.0
20260506115701 62 73 0.0 1.0 0.00 0.00 0.00 86 1013.1
20260506115201 62 257 0.0 1.0 0.00 0.00 0.00 87 1013.1
20260506114700 62 55 0.0 1.0 0.00 0.00 0.00 87 1013.3
20260506114200 61 154 0.0 1.0 0.00 0.00 0.00 87 1013.3
20260506113703 61 271 0.0 0.0 0.00 0.00 0.00 87 1013.3
20260506113203 61 211 0.0 2.0 0.00 0.00 0.00 87 1013.3
20260506112703 61 266 0.0 2.0 0.00 0.00 0.00 87 1013.4
20260506112205 61 296 0.0 0.0 0.00 0.00 0.00 88 1013.3
20260506111702 61 65 0.0 1.0 0.00 0.00 0.00 88 1013.3
20260506111204 61 44 0.0 1.0 0.00 0.00 0.00 88 1013.1
20260506110703 61 81 0.0 1.0 0.00 0.00 0.00 88 1013.0
20260506110203 61 112 0.0 1.0 0.00 0.00 0.00 88 1013.1
20260506105702 61 78 0.0 1.0 0.00 0.00 0.00 88 1013.1
20260506105204 60 79 0.0 1.0 0.00 0.00 0.00 89 1013.0
20260506104703 60 88 0.0 1.0 0.00 0.00 0.00 89 1013.0
20260506104204 60 34 0.0 1.0 0.00 0.00 0.00 89 1012.9
20260506103701 60 73 0.0 1.0 0.00 0.00 0.00 89 1012.9
20260506103201 60 198 0.0 1.0 0.00 0.00 0.00 89 1013.1
20260506102701 60 223 0.0 1.0 0.00 0.00 0.00 88 1013.0
20260506102428 60 108 0.0 1.0 0.00 0.00 0.00 88 1013.2
20260506101700 60 220 0.0 0.0 0.00 0.00 0.00 88 1013.1
20260506101200 60 294 0.0 0.0 0.00 0.00 0.00 88 1013.2
20260506100702 61 135 0.0 0.0 0.00 0.00 0.00 87 1013.3
20260506100203 61 133 0.0 1.0 0.00 0.00 0.00 87 1013.3
20260506095700 61 121 0.0 1.0 0.00 0.00 0.00 87 1013.3
20260506095200 61 121 0.0 0.0 0.00 0.00 0.00 87 1013.3
20260506094702 61 49 0.0 0.0 0.00 0.00 0.00 87 1013.2
20260506094202 61 29 0.0 1.0 0.00 0.00 0.00 87 1013.3
20260506093701 61 81 0.0 1.0 0.00 0.00 0.00 87 1013.3
20260506093201 61 125 0.0 0.0 0.00 0.00 0.00 87 1013.4
20260506093148 61 176 0.0 1.0 0.00 0.00 0.00 87 1013.5
20260506092204 61 97 0.0 1.0 0.00 0.00 0.00 87 1013.6
20260506091703 61 229 0.0 0.0 0.00 0.00 0.00 87 1013.5
20260506091203 61 109 0.0 0.0 0.00 0.00 0.00 86 1013.4
20260506090702 61 109 0.0 0.0 0.00 0.00 0.00 86 1013.4
20260506090205 61 107 0.0 0.0 0.00 0.00 0.00 86 1013.3
20260506085705 61 215 0.0 1.0 0.00 0.00 0.00 86 1013.3
20260506085204 61 215 0.0 1.0 0.00 0.00 0.00 86 1013.3
20260506084703 61 50 0.0 1.0 0.00 0.00 0.00 86 1013.4
20260506084203 61 163 0.0 0.0 0.00 0.00 0.00 85 1013.5
20260506083703 61 111 0.0 0.0 0.00 0.00 0.00 85 1013.3
20260506083204 62 240 0.0 0.0 0.00 0.00 0.00 85 1013.4
20260506082927 62 143 0.0 0.0 0.00 0.00 0.00 85 1013.3
20260506082203 62 58 0.0 1.0 0.00 0.00 0.00 85 1013.4
20260506081703 62 102 0.0 1.0 0.00 0.00 0.00 85 1013.2
20260506081204 62 61 0.0 1.0 0.00 0.00 0.00 85 1013.3
20260506080703 62 57 0.0 1.0 0.00 0.00 0.00 85 1013.2
20260506080204 62 124 0.0 1.0 0.00 0.00 0.00 84 1013.3
20260506073205 62 102 0.0 1.0 0.00 0.00 0.00 83 1013.5
20260506072703 62 74 0.0 1.0 0.00 0.00 0.00 83 1013.4
20260506072203 62 111 0.0 1.0 0.00 0.00 0.00 83 1013.6
20260506071703 62 106 0.0 1.0 0.00 0.00 0.00 83 1013.6
20260506071203 62 50 0.0 1.0 0.00 0.00 0.00 83 1013.5
20260506070703 62 79 0.0 1.0 0.00 0.00 0.00 83 1013.4
20260506070203 62 95 0.0 1.0 0.00 0.00 0.00 83 1013.5
20260506062201 63 124 0.0 2.0 0.00 0.00 0.00 81 1013.8
20260506061702 63 214 0.0 2.0 0.00 0.00 0.00 81 1013.9
20260506061201 63 93 0.0 1.0 0.00 0.00 0.00 81 1013.9
20260506060700 63 42 0.0 1.0 0.00 0.00 0.00 81 1013.9
20260506060201 63 89 0.0 1.0 0.00 0.00 0.00 81 1014.0
20260506051141 64 86 0.0 3.0 0.00 0.00 0.00 80 1014.3
20260506050639 64 137 0.0 2.0 0.00 0.00 0.00 80 1014.3
20260506050139 64 81 0.0 5.0 0.00 0.00 0.00 80 1014.4
20260506044637 65 84 0.0 1.0 0.00 0.00 0.00 80 1014.5
20260506044400 65 187 0.0 5.0 0.00 0.00 0.00 79 1014.5
20260506043635 65 210 0.0 5.0 0.00 0.00 0.00 79 1014.5
20260506043133 65 118 0.0 1.0 0.00 0.00 0.00 79 1014.5
20260506042631 65 74 0.0 4.0 0.00 0.00 0.00 79 1014.4
20260506042133 65 101 0.0 4.0 0.00 0.00 0.00 78 1014.5
20260506041630 65 330 0.0 7.0 0.00 0.00 0.00 78 1014.5
20260506041613 65 65 0.0 7.0 0.00 0.00 0.00 78 1014.5
20260506040629 65 161 0.0 5.0 0.00 0.00 0.00 78 1014.4
20260506040129 65 63 0.0 3.0 0.00 0.00 0.00 77 1014.4
20260506035856 66 68 0.0 4.0 0.00 0.00 0.00 77 1014.5
20260506035130 66 153 0.0 4.0 0.00 0.00 0.00 76 1014.5
20260506034629 66 154 0.0 5.0 0.00 0.00 0.00 76 1014.5
20260506034131 66 143 0.0 5.0 0.00 0.00 0.00 75 1014.5
20260506033628 66 133 0.0 3.0 0.00 0.00 0.00 74 1014.5
20260506033350 67 243 0.0 3.0 0.00 0.00 0.00 74 1014.5
20260506032630 67 286 0.0 3.0 0.00 0.00 0.00 73 1014.4
20260506032129 67 44 0.0 3.0 0.00 0.00 0.00 73 1014.6
20260506031630 67 297 0.0 1.0 0.00 0.00 0.00 72 1014.7
20260506031129 67 174 0.0 6.0 0.00 0.00 0.00 72 1014.6
20260506030852 67 176 0.0 6.0 0.00 0.00 0.00 71 1014.6
20260506030129 67 112 0.0 5.0 0.00 0.00 0.00 71 1014.6
20260506025629 68 101 0.0 5.0 0.00 0.00 0.00 71 1014.6
20260506025130 68 263 0.0 5.0 0.00 0.00 0.00 70 1014.5
20260506024631 68 91 0.0 2.0 0.00 0.00 0.00 70 1014.5
20260506024131 68 77 0.0 3.0 0.00 0.00 0.00 69 1014.5
20260506023629 68 98 0.0 5.0 0.00 0.00 0.00 69 1014.5
20260506023348 69 121 0.0 5.0 0.00 0.00 0.00 68 1014.4
20260506022856 69 169 0.0 3.0 0.00 0.00 0.00 68 1014.5
20260506022349 69 204 0.0 4.0 0.00 0.00 0.00 68 1014.4
20260506021629 69 109 0.0 4.0 0.00 0.00 0.00 67 1014.4
20260506021128 69 32 0.0 4.0 0.00 0.00 0.00 67 1014.4
20260506020629 70 186 0.0 4.0 0.00 0.00 0.00 66 1014.2
20260506020128 70 198 0.0 3.0 0.00 0.00 0.00 66 1014.2
20260506015629 70 197 0.0 2.0 0.00 0.00 0.00 65 1014.2
20260506015350 70 196 0.0 5.0 0.00 0.00 0.00 65 1014.0
20260506014628 70 109 0.0 5.0 0.00 0.00 0.00 65 1014.0
20260506014129 70 106 0.0 1.0 0.00 0.00 0.00 64 1013.9
20260506013629 71 218 0.0 3.0 0.00 0.00 0.00 64 1013.8
20260506013131 71 144 0.0 3.0 0.00 0.00 0.00 63 1013.7
20260506012628 71 62 0.0 1.0 0.00 0.00 0.00 63 1013.7
20260506012129 71 72 0.0 1.0 0.00 0.00 0.00 63 1013.6
20260506011630 71 140 0.0 4.0 0.00 0.00 0.00 62 1013.5
20260506011129 72 68 0.0 4.0 0.00 0.00 0.00 62 1013.5
20260506010847 72 49 0.0 1.0 0.00 0.00 0.00 61 1013.5
20260506010129 72 242 0.0 1.0 0.00 0.00 0.00 61 1013.4
20260506005630 72 99 0.0 1.0 0.00 0.00 0.00 61 1013.3
20260506005129 72 100 0.0 1.0 0.00 0.00 0.00 60 1013.2
20260506004629 72 173 0.0 1.0 0.00 0.00 0.00 60 1013.1
20260506004128 73 107 0.0 1.0 0.00 0.00 0.00 60 1013.1
20260506003847 73 204 0.0 1.0 0.00 0.00 0.00 59 1013.1
20260506003129 73 56 0.0 1.0 0.00 0.00 0.00 59 1013.0
20260506002629 73 79 0.0 1.0 0.00 0.00 0.00 59 1012.9
20260506002130 73 225 0.0 1.0 0.00 0.00 0.00 58 1012.9
20260506001628 73 119 0.0 1.0 0.00 0.00 0.00 58 1012.9